TimeCET,TemperatureF,Dew PointF,Humidity,Sea Level PressureIn,VisibilityMPH,Wind Direction,Wind SpeedMPH,Gust SpeedMPH,PrecipitationIn,Events,Conditions,WindDirDegrees,DateUTC
12:00 AM,26.6,26.6,100,30.27,-9999.0,Variable,1.2,-,N/A,,Clear,0,2013-12-01 23:00:00
12:30 AM,28.4,26.6,93,30.27,-9999.0,Variable,1.2,-,N/A,,Clear,0,2013-12-01 23:30:00
1:00 AM,24.8,23.0,93,30.27,-9999.0,Variable,1.2,-,N/A,,Clear,0,2013-12-02 00:00:00
1:30 AM,30.2,28.4,93,30.27,-9999.0,WNW,5.8,-,N/A,,Clear,290,2013-12-02 00:30:00
2:00 AM,30.2,28.4,93,30.27,-9999.0,Variable,2.3,-,N/A,,Clear,0,2013-12-02 01:00:00
2:30 AM,30.2,28.4,93,30.27,-9999.0,WNW,6.9,-,N/A,,Clear,300,2013-12-02 01:30:00
3:00 AM,32.0,30.2,93,30.27,-9999.0,NW,9.2,-,N/A,,Clear,310,2013-12-02 02:00:00
3:30 AM,33.8,30.2,87,30.27,-9999.0,NW,6.9,-,N/A,,Clear,310,2013-12-02 02:30:00
4:00 AM,26.6,24.8,93,30.27,-9999.0,East,4.6,-,N/A,,Clear,90,2013-12-02 03:00:00
4:30 AM,32.0,30.2,93,30.27,-9999.0,Variable,1.2,-,N/A,,Clear,0,2013-12-02 03:30:00
5:00 AM,26.6,23.0,86,30.30,-9999.0,Variable,2.3,-,N/A,,Clear,0,2013-12-02 04:00:00
5:30 AM,24.8,24.8,100,30.30,-9999.0,ESE,4.6,-,N/A,,Clear,110,2013-12-02 04:30:00
6:00 AM,26.6,26.6,100,30.33,-9999.0,Variable,3.5,-,N/A,,Clear,0,2013-12-02 05:00:00
6:30 AM,26.6,26.6,100,30.33,-9999.0,Variable,2.3,-,N/A,,Clear,0,2013-12-02 05:30:00
7:00 AM,30.2,30.2,100,30.33,-9999.0,WNW,10.4,-,N/A,,Clear,290,2013-12-02 06:00:00
7:30 AM,28.4,26.6,93,30.36,-9999.0,NW,8.1,-,N/A,,Clear,310,2013-12-02 06:30:00
8:00 AM,33.8,32.0,93,30.36,-9999.0,NW,8.1,-,N/A,,Clear,320,2013-12-02 07:00:00
8:30 AM,35.6,33.8,93,30.36,-9999.0,NNW,10.4,-,N/A,,Clear,330,2013-12-02 07:30:00
9:00 AM,37.4,35.6,93,30.39,-9999.0,NW,4.6,-,N/A,,Clear,310,2013-12-02 08:00:00
9:30 AM,39.2,35.6,87,30.39,-9999.0,Variable,2.3,-,N/A,,Clear,0,2013-12-02 08:30:00
10:00 AM,41.0,35.6,81,30.42,-9999.0,Variable,3.5,-,N/A,,Clear,0,2013-12-02 09:00:00
10:30 AM,42.8,35.6,76,30.42,-9999.0,NNW,5.8,-,N/A,,Clear,330,2013-12-02 09:30:00
11:00 AM,42.8,35.6,76,30.42,-9999.0,North,4.6,-,N/A,,Clear,350,2013-12-02 10:00:00
11:30 AM,44.6,35.6,71,30.42,-9999.0,Variable,3.5,-,N/A,,Clear,0,2013-12-02 10:30:00
12:00 PM,46.4,33.8,62,30.42,-9999.0,West,4.6,-,N/A,,Clear,280,2013-12-02 11:00:00
12:30 PM,46.4,32.0,57,30.42,-9999.0,Variable,2.3,-,N/A,,Clear,0,2013-12-02 11:30:00
1:00 PM,50.0,33.8,54,30.42,6.2,Variable,2.3,-,N/A,,Partly Cloudy,0,2013-12-02 12:00:00
1:30 PM,48.2,30.2,50,30.42,6.2,SW,5.8,-,N/A,,Partly Cloudy,220,2013-12-02 12:30:00
2:00 PM,48.2,32.0,54,30.42,6.2,SW,6.9,-,N/A,,Partly Cloudy,230,2013-12-02 13:00:00
2:30 PM,48.2,33.8,58,30.42,6.2,SW,8.1,-,N/A,,Scattered Clouds,230,2013-12-02 13:30:00
3:00 PM,46.4,33.8,62,30.45,6.2,SW,6.9,-,N/A,,Partly Cloudy,230,2013-12-02 14:00:00
3:30 PM,42.8,32.0,66,30.45,-9999.0,WNW,8.1,-,N/A,,Clear,290,2013-12-02 14:30:00
4:00 PM,39.2,30.2,70,30.45,-9999.0,WNW,6.9,-,N/A,,Clear,290,2013-12-02 15:00:00
4:30 PM,39.2,32.0,75,30.48,-9999.0,West,8.1,-,N/A,,Clear,280,2013-12-02 15:30:00
5:00 PM,33.8,28.4,81,30.48,-9999.0,West,4.6,-,N/A,,Clear,280,2013-12-02 16:00:00
5:30 PM,32.0,30.2,93,30.48,-9999.0,Variable,2.3,-,N/A,,Clear,0,2013-12-02 16:30:00
6:00 PM,32.0,28.4,87,30.48,-9999.0,Calm,Calm,-,N/A,,Clear,0,2013-12-02 17:00:00
6:30 PM,28.4,26.6,93,30.51,-9999.0,Variable,3.5,-,N/A,,Clear,0,2013-12-02 17:30:00
7:00 PM,28.4,26.6,93,30.51,-9999.0,ENE,4.6,-,N/A,,Clear,70,2013-12-02 18:00:00
7:30 PM,33.8,30.2,87,30.51,-9999.0,East,5.8,-,N/A,,Clear,80,2013-12-02 18:30:00
8:00 PM,35.6,33.8,93,30.54,-9999.0,NE,8.1,-,N/A,,Clear,50,2013-12-02 19:00:00
8:30 PM,35.6,28.4,75,30.57,6.2,East,11.5,-,N/A,,Partly Cloudy,90,2013-12-02 19:30:00
9:00 PM,33.8,26.6,75,30.57,6.2,East,10.4,-,N/A,,Partly Cloudy,90,2013-12-02 20:00:00
9:30 PM,32.0,26.6,80,30.57,-9999.0,East,8.1,-,N/A,,Clear,90,2013-12-02 20:30:00
10:00 PM,30.2,24.8,80,30.60,-9999.0,ESE,4.6,-,N/A,,Clear,120,2013-12-02 21:00:00
10:30 PM,30.2,24.8,80,30.60,-9999.0,Variable,3.5,-,N/A,,Clear,0,2013-12-02 21:30:00
11:00 PM,28.4,24.8,86,30.60,-9999.0,Variable,2.3,-,N/A,,Clear,0,2013-12-02 22:00:00
11:30 PM,30.2,23.0,75,30.60,6.2,Variable,3.5,-,N/A,,Partly Cloudy,0,2013-12-02 22:30:00